owner,sensor,date,latitude,longitude,vertical_datum,sea_water_practical_salinity,qcFlag 
TABS,ioos:station:wmo:42048:1,2012-11-01T18:30:00Z,27.9396,-96.8429,2.0,32.7907,11111222 
TABS,ioos:station:wmo:42048:1,2012-11-01T19:00:00Z,27.9396,-96.8429,2.0,32.7916,11111222 
TABS,ioos:station:wmo:42048:1,2012-11-01T19:30:00Z,27.9396,-96.8429,2.0,32.8035,11111222 
TABS,ioos:station:wmo:42048:1,2012-11-01T20:00:00Z,27.9396,-96.8429,2.0,32.7983,11111222 
TABS,ioos:station:wmo:42048:1,2012-11-01T20:30:00Z,27.9396,-96.8429,2.0,32.7949,11111222 
TABS,ioos:station:wmo:42048:1,2012-11-01T21:00:00Z,27.9396,-96.8429,2.0,32.7685,11111222 
TABS,ioos:station:wmo:42048:1,2012-11-01T21:30:00Z,27.9396,-96.8429,2.0,32.7952,11111222 
TABS,ioos:station:wmo:42048:1,2012-11-01T22:00:00Z,27.9396,-96.8429,2.0,32.7989,11111222 
TABS,ioos:station:wmo:42048:1,2012-11-01T22:30:00Z,27.9396,-96.8429,2.0,32.8033,11111222 
TABS,ioos:station:wmo:42048:1,2012-11-01T23:00:00Z,27.9396,-96.8429,2.0,32.8023,11111222 
TABS,ioos:station:wmo:42048:1,2012-11-01T23:30:00Z,27.9396,-96.8429,2.0,32.8091,11111222 
TABS,ioos:station:wmo:42048:1,2012-11-02T00:00:00Z,27.9396,-96.8429,2.0,32.8118,11111222 
TABS,ioos:station:wmo:42048:1,2012-11-02T00:30:00Z,27.9396,-96.8429,2.0,32.8081,11111222 
TABS,ioos:station:wmo:42048:1,2012-11-02T01:00:00Z,27.9396,-96.8429,2.0,32.8237,11111222 
TABS,ioos:station:wmo:42048:1,2012-11-02T01:30:00Z,27.9396,-96.8429,2.0,32.8272,11111222 
TABS,ioos:station:wmo:42048:1,2012-11-02T02:00:00Z,27.9396,-96.8429,2.0,32.8339,11111222 
TABS,ioos:station:wmo:42048:1,2012-11-02T02:30:00Z,27.9396,-96.8429,2.0,32.8476,11111222 
TABS,ioos:station:wmo:42048:1,2012-11-02T03:00:00Z,27.9396,-96.8429,2.0,32.8688,11111222 
TABS,ioos:station:wmo:42048:1,2012-11-02T03:30:00Z,27.9396,-96.8429,2.0,32.8796,11111222 
TABS,ioos:station:wmo:42048:1,2012-11-02T04:00:00Z,27.9396,-96.8429,2.0,32.8924,11111222 
TABS,ioos:station:wmo:42048:1,2012-11-02T04:30:00Z,27.9396,-96.8429,2.0,32.903,11111222 
TABS,ioos:station:wmo:42048:1,2012-11-02T05:00:00Z,27.9396,-96.8429,2.0,32.9138,11111222 
TABS,ioos:station:wmo:42048:1,2012-11-02T05:30:00Z,27.9396,-96.8429,2.0,32.9203,11111222 
TABS,ioos:station:wmo:42048:1,2012-11-02T06:00:00Z,27.9396,-96.8429,2.0,32.9198,11111222 
TABS,ioos:station:wmo:42048:1,2012-11-02T06:30:00Z,27.9396,-96.8429,2.0,32.9326,11111222 
TABS,ioos:station:wmo:42048:1,2012-11-02T07:00:00Z,27.9396,-96.8429,2.0,32.9487,11111222 
TABS,ioos:station:wmo:42048:1,2012-11-02T07:30:00Z,27.9396,-96.8429,2.0,32.9444,11111222 
TABS,ioos:station:wmo:42048:1,2012-11-02T08:00:00Z,27.9396,-96.8429,2.0,32.9543,11111222 
TABS,ioos:station:wmo:42048:1,2012-11-03T00:30:00Z,27.9396,-96.8429,2.0,33.0603,11111222 
TABS,ioos:station:wmo:42048:1,2012-11-03T01:00:00Z,27.9396,-96.8429,2.0,33.0657,11111222 
TABS,ioos:station:wmo:42048:1,2012-11-03T01:30:00Z,27.9396,-96.8429,2.0,33.0643,11111222 
TABS,ioos:station:wmo:42048:1,2012-11-03T02:00:00Z,27.9396,-96.8429,2.0,33.0653,11111222 
TABS,ioos:station:wmo:42048:1,2012-11-03T02:30:00Z,27.9396,-96.8429,2.0,33.0645,11111222 
TABS,ioos:station:wmo:42048:1,2012-11-03T03:00:00Z,27.9396,-96.8429,2.0,33.0659,11111222 
TABS,ioos:station:wmo:42048:1,2012-11-03T03:30:00Z,27.9396,-96.8429,2.0,33.065,11111222 
TABS,ioos:station:wmo:42048:1,2012-11-03T04:00:00Z,27.9396,-96.8429,2.0,33.0664,11111222 
TABS,ioos:station:wmo:42048:1,2012-11-03T04:30:00Z,27.9396,-96.8429,2.0,33.0655,11111222 
TABS,ioos:station:wmo:42048:1,2012-11-03T06:30:00Z,27.9396,-96.8429,2.0,33.0858,11111222 
TABS,ioos:station:wmo:42048:1,2012-11-03T07:00:00Z,27.9396,-96.8429,2.0,33.0923,11111222 
TABS,ioos:station:wmo:42048:1,2012-11-03T07:30:00Z,27.9396,-96.8429,2.0,33.0967,11111222 
TABS,ioos:station:wmo:42048:1,2012-11-03T08:00:00Z,27.9396,-96.8429,2.0,33.098,11111222 
TABS,ioos:station:wmo:42048:1,2012-11-03T08:30:00Z,27.9396,-96.8429,2.0,33.1032,11111222 
TABS,ioos:station:wmo:42048:1,2012-11-03T09:00:00Z,27.9396,-96.8429,2.0,33.1067,11111222 
TABS,ioos:station:wmo:42048:1,2012-11-03T09:30:00Z,27.9396,-96.8429,2.0,33.1089,11111222 
TABS,ioos:station:wmo:42048:1,2012-11-03T10:00:00Z,27.9396,-96.8429,2.0,33.1118,11111222 
TABS,ioos:station:wmo:42048:1,2012-11-03T10:30:00Z,27.9396,-96.8429,2.0,33.114,11111222 
TABS,ioos:station:wmo:42048:1,2012-11-03T11:00:00Z,27.9396,-96.8429,2.0,33.1149,11111222 
TABS,ioos:station:wmo:42048:1,2012-11-03T11:30:00Z,27.9396,-96.8429,2.0,33.1162,11111222 
TABS,ioos:station:wmo:42048:1,2012-11-03T12:00:00Z,27.9396,-96.8429,2.0,33.1166,11111222 
TABS,ioos:station:wmo:42048:1,2012-11-03T12:30:00Z,27.9396,-96.8429,2.0,33.1167,11111222 
TABS,ioos:station:wmo:42048:1,2012-11-03T13:00:00Z,27.9396,-96.8429,2.0,33.1171,11111222 
TABS,ioos:station:wmo:42048:1,2012-11-03T13:30:00Z,27.9396,-96.8429,2.0,33.1168,11111222 
TABS,ioos:station:wmo:42048:1,2012-11-03T14:00:00Z,27.9396,-96.8429,2.0,33.1161,11111222 
TABS,ioos:station:wmo:42048:1,2012-11-03T14:30:00Z,27.9396,-96.8429,2.0,33.1151,11111222 
TABS,ioos:station:wmo:42048:1,2012-11-03T15:00:00Z,27.9396,-96.8429,2.0,33.1132,11111222 
TABS,ioos:station:wmo:42048:1,2012-11-03T15:30:00Z,27.9396,-96.8429,2.0,33.1084,11111222 
TABS,ioos:station:wmo:42048:1,2012-11-03T16:00:00Z,27.9396,-96.8429,2.0,33.1097,11111222 
TABS,ioos:station:wmo:42048:1,2012-11-03T16:30:00Z,27.9396,-96.8429,2.0,33.1112,11111222 
TABS,ioos:station:wmo:42048:1,2012-11-03T17:00:00Z,27.9396,-96.8429,2.0,33.1076,11111222 
TABS,ioos:station:wmo:42048:1,2012-11-03T17:30:00Z,27.9396,-96.8429,2.0,33.1128,11111222 
TABS,ioos:station:wmo:42048:1,2012-11-03T18:00:00Z,27.9396,-96.8429,2.0,33.1097,11111222 
TABS,ioos:station:wmo:42048:1,2012-11-03T18:30:00Z,27.9396,-96.8429,2.0,33.1141,11111222 
TABS,ioos:station:wmo:42048:1,2012-11-03T19:00:00Z,27.9396,-96.8429,2.0,33.1033,11111222 
TABS,ioos:station:wmo:42048:1,2012-11-03T19:30:00Z,27.9396,-96.8429,2.0,33.117,11111222 
TABS,ioos:station:wmo:42048:1,2012-11-03T20:00:00Z,27.9396,-96.8429,2.0,33.1305,11111222 
TABS,ioos:station:wmo:42048:1,2012-11-03T20:30:00Z,27.9396,-96.8429,2.0,33.1011,11111222 
TABS,ioos:station:wmo:42048:1,2012-11-03T21:00:00Z,27.9396,-96.8429,2.0,33.1319,11111222 
TABS,ioos:station:wmo:42048:1,2012-11-03T21:30:00Z,27.9396,-96.8429,2.0,33.1138,11111222 
TABS,ioos:station:wmo:42048:1,2012-11-03T22:00:00Z,27.9396,-96.8429,2.0,33.1129,11111222 
TABS,ioos:station:wmo:42048:1,2012-11-03T22:30:00Z,27.9396,-96.8429,2.0,33.1162,11111222 
TABS,ioos:station:wmo:42048:1,2012-11-03T23:00:00Z,27.9396,-96.8429,2.0,33.1237,11111222 
TABS,ioos:station:wmo:42048:1,2012-11-03T23:30:00Z,27.9396,-96.8429,2.0,33.1273,11111222 
TABS,ioos:station:wmo:42048:1,2012-11-04T00:00:00Z,27.9396,-96.8429,2.0,33.1321,11111222 
TABS,ioos:station:wmo:42048:1,2012-11-04T00:30:00Z,27.9396,-96.8429,2.0,33.1432,11111222 
TABS,ioos:station:wmo:42048:1,2012-11-04T01:00:00Z,27.9396,-96.8429,2.0,33.1437,11111222 
TABS,ioos:station:wmo:42048:1,2012-11-04T01:30:00Z,27.9396,-96.8429,2.0,33.1415,11111222 
TABS,ioos:station:wmo:42048:1,2012-11-04T02:00:00Z,27.9396,-96.8429,2.0,33.1453,11111222 
TABS,ioos:station:wmo:42048:1,2012-11-04T02:30:00Z,27.9396,-96.8429,2.0,33.1287,11111222 
TABS,ioos:station:wmo:42048:1,2012-11-04T03:00:00Z,27.9396,-96.8429,2.0,33.1231,11111222 
TABS,ioos:station:wmo:42048:1,2012-11-04T03:30:00Z,27.9396,-96.8429,2.0,33.1268,11111222 
TABS,ioos:station:wmo:42048:1,2012-11-04T04:00:00Z,27.9396,-96.8429,2.0,33.1312,11111222 
TABS,ioos:station:wmo:42048:1,2012-11-04T04:30:00Z,27.9396,-96.8429,2.0,33.1242,11111222 
TABS,ioos:station:wmo:42048:1,2012-11-04T05:00:00Z,27.9396,-96.8429,2.0,33.1189,11111222 
TABS,ioos:station:wmo:42048:1,2012-11-04T05:30:00Z,27.9396,-96.8429,2.0,33.1037,11111222 
TABS,ioos:station:wmo:42048:1,2012-11-04T06:00:00Z,27.9396,-96.8429,2.0,33.0954,11111222 
TABS,ioos:station:wmo:42048:1,2012-11-04T06:30:00Z,27.9396,-96.8429,2.0,33.0927,11111222 
TABS,ioos:station:wmo:42048:1,2012-11-04T07:00:00Z,27.9396,-96.8429,2.0,33.1,11111222 
TABS,ioos:station:wmo:42048:1,2012-11-04T07:30:00Z,27.9396,-96.8429,2.0,33.1038,11111222 
TABS,ioos:station:wmo:42048:1,2012-11-04T08:00:00Z,27.9396,-96.8429,2.0,33.1047,11111222 
TABS,ioos:station:wmo:42048:1,2012-11-04T08:30:00Z,27.9396,-96.8429,2.0,33.1046,11111222 
TABS,ioos:station:wmo:42048:1,2012-11-07T16:30:00Z,27.9396,-96.8429,2.0,33.278,11111222 
TABS,ioos:station:wmo:42048:1,2012-11-07T17:00:00Z,27.9396,-96.8429,2.0,33.2627,11111222 
TABS,ioos:station:wmo:42048:1,2012-11-07T17:30:00Z,27.9396,-96.8429,2.0,33.2499,11111222 
TABS,ioos:station:wmo:42048:1,2012-11-07T18:00:00Z,27.9396,-96.8429,2.0,33.2435,11111222 
TABS,ioos:station:wmo:42048:1,2012-11-07T18:30:00Z,27.9396,-96.8429,2.0,33.261,11111222 
TABS,ioos:station:wmo:42048:1,2012-11-07T19:00:00Z,27.9396,-96.8429,2.0,33.2579,11111222 
TABS,ioos:station:wmo:42048:1,2012-11-07T19:30:00Z,27.9396,-96.8429,2.0,33.2593,11111222 
TABS,ioos:station:wmo:42048:1,2012-11-07T20:00:00Z,27.9396,-96.8429,2.0,33.2139,11111222 
TABS,ioos:station:wmo:42048:1,2012-11-07T20:30:00Z,27.9396,-96.8429,2.0,33.2351,11111222 
TABS,ioos:station:wmo:42048:1,2012-11-07T21:00:00Z,27.9396,-96.8429,2.0,33.2662,11111222 
TABS,ioos:station:wmo:42048:1,2012-11-07T21:30:00Z,27.9396,-96.8429,2.0,33.3317,11111222 
TABS,ioos:station:wmo:42048:1,2012-11-07T22:00:00Z,27.9396,-96.8429,2.0,33.4744,11111222 
TABS,ioos:station:wmo:42048:1,2012-11-07T22:30:00Z,27.9396,-96.8429,2.0,33.4943,11111222 
TABS,ioos:station:wmo:42048:1,2012-11-07T23:00:00Z,27.9396,-96.8429,2.0,33.4834,11111222 
TABS,ioos:station:wmo:42048:1,2012-11-07T23:30:00Z,27.9396,-96.8429,2.0,33.4709,11111222 
TABS,ioos:station:wmo:42048:1,2012-11-08T00:00:00Z,27.9396,-96.8429,2.0,33.4571,11111222 
TABS,ioos:station:wmo:42048:1,2012-11-08T00:30:00Z,27.9396,-96.8429,2.0,33.4546,11111222 
TABS,ioos:station:wmo:42048:1,2012-11-08T01:00:00Z,27.9396,-96.8429,2.0,33.4474,11111222 
TABS,ioos:station:wmo:42048:1,2012-11-08T01:30:00Z,27.9396,-96.8429,2.0,33.4417,11111222 
TABS,ioos:station:wmo:42048:1,2012-11-08T02:00:00Z,27.9396,-96.8429,2.0,33.4286,11111222 
TABS,ioos:station:wmo:42048:1,2012-11-08T02:30:00Z,27.9396,-96.8429,2.0,33.4277,11111222 
TABS,ioos:station:wmo:42048:1,2012-11-08T03:00:00Z,27.9396,-96.8429,2.0,33.4251,11111222 
TABS,ioos:station:wmo:42048:1,2012-11-08T03:30:00Z,27.9396,-96.8429,2.0,33.4261,11111222 
TABS,ioos:station:wmo:42048:1,2012-11-08T04:00:00Z,27.9396,-96.8429,2.0,33.4309,11111222 
TABS,ioos:station:wmo:42048:1,2012-11-08T04:30:00Z,27.9396,-96.8429,2.0,33.4372,11111222 
TABS,ioos:station:wmo:42048:1,2012-11-08T05:00:00Z,27.9396,-96.8429,2.0,33.4424,11111222 
TABS,ioos:station:wmo:42048:1,2012-11-08T05:30:00Z,27.9396,-96.8429,2.0,33.4646,11111222 
TABS,ioos:station:wmo:42048:1,2012-11-08T06:00:00Z,27.9396,-96.8429,2.0,33.4903,11111222 
TABS,ioos:station:wmo:42048:1,2012-11-08T06:30:00Z,27.9396,-96.8429,2.0,33.4653,11111222 
TABS,ioos:station:wmo:42048:1,2012-11-08T07:00:00Z,27.9396,-96.8429,2.0,33.4401,11111222 
TABS,ioos:station:wmo:42048:1,2012-11-08T07:30:00Z,27.9396,-96.8429,2.0,33.3705,11111222 
TABS,ioos:station:wmo:42048:1,2012-11-08T08:00:00Z,27.9396,-96.8429,2.0,33.3388,11111222 
TABS,ioos:station:wmo:42048:1,2012-11-08T08:30:00Z,27.9396,-96.8429,2.0,33.3182,11111222 
TABS,ioos:station:wmo:42048:1,2012-11-08T09:00:00Z,27.9396,-96.8429,2.0,33.3044,11111222 
TABS,ioos:station:wmo:42048:1,2012-11-08T09:30:00Z,27.9396,-96.8429,2.0,33.297,11111222 
TABS,ioos:station:wmo:42048:1,2012-11-08T10:00:00Z,27.9396,-96.8429,2.0,33.2856,11111222 
TABS,ioos:station:wmo:42048:1,2012-11-08T10:30:00Z,27.9396,-96.8429,2.0,33.2705,11111222 
TABS,ioos:station:wmo:42048:1,2012-11-08T11:00:00Z,27.9396,-96.8429,2.0,33.2509,11111222 
TABS,ioos:station:wmo:42048:1,2012-11-08T11:30:00Z,27.9396,-96.8429,2.0,33.2394,11111222 
TABS,ioos:station:wmo:42048:1,2012-11-08T12:00:00Z,27.9396,-96.8429,2.0,33.2431,11111222 
TABS,ioos:station:wmo:42048:1,2012-11-08T12:30:00Z,27.9396,-96.8429,2.0,33.2299,11111222 
TABS,ioos:station:wmo:42048:1,2012-11-08T13:00:00Z,27.9396,-96.8429,2.0,33.2237,11111222 
TABS,ioos:station:wmo:42048:1,2012-11-08T13:30:00Z,27.9396,-96.8429,2.0,33.2198,11111222 
TABS,ioos:station:wmo:42048:1,2012-11-08T14:00:00Z,27.9396,-96.8429,2.0,33.2141,11111222 
TABS,ioos:station:wmo:42048:1,2012-11-08T14:30:00Z,27.9396,-96.8429,2.0,33.2094,11111222 
TABS,ioos:station:wmo:42048:1,2012-11-08T15:00:00Z,27.9396,-96.8429,2.0,33.2123,11111222 
TABS,ioos:station:wmo:42048:1,2012-11-08T15:30:00Z,27.9396,-96.8429,2.0,33.219,11111222 
TABS,ioos:station:wmo:42048:1,2012-11-08T16:00:00Z,27.9396,-96.8429,2.0,33.2354,11111222 
TABS,ioos:station:wmo:42048:1,2012-11-08T16:30:00Z,27.9396,-96.8429,2.0,33.2458,11111222 
TABS,ioos:station:wmo:42048:1,2012-11-08T17:00:00Z,27.9396,-96.8429,2.0,33.2583,11111222 
TABS,ioos:station:wmo:42048:1,2012-11-08T17:30:00Z,27.9396,-96.8429,2.0,33.2755,11111222 
TABS,ioos:station:wmo:42048:1,2012-11-08T18:00:00Z,27.9396,-96.8429,2.0,33.2958,11111222 
TABS,ioos:station:wmo:42048:1,2012-11-08T18:30:00Z,27.9396,-96.8429,2.0,33.3126,11111222 
TABS,ioos:station:wmo:42048:1,2012-11-08T19:00:00Z,27.9396,-96.8429,2.0,33.3336,11111222 
TABS,ioos:station:wmo:42048:1,2012-11-09T17:00:00Z,27.9396,-96.8429,2.0,34.2212,11111222 
TABS,ioos:station:wmo:42048:1,2012-11-09T17:30:00Z,27.9396,-96.8429,2.0,34.2268,11111222 
TABS,ioos:station:wmo:42048:1,2012-11-09T18:00:00Z,27.9396,-96.8429,2.0,34.2124,11111222 
TABS,ioos:station:wmo:42048:1,2012-11-09T18:30:00Z,27.9396,-96.8429,2.0,34.187,11111222 
TABS,ioos:station:wmo:42048:1,2012-11-09T19:00:00Z,27.9396,-96.8429,2.0,34.1655,11111222 
TABS,ioos:station:wmo:42048:1,2012-11-09T19:30:00Z,27.9396,-96.8429,2.0,34.1622,11111222 
TABS,ioos:station:wmo:42048:1,2012-11-09T20:00:00Z,27.9396,-96.8429,2.0,34.145,11111222 
TABS,ioos:station:wmo:42048:1,2012-11-09T20:30:00Z,27.9396,-96.8429,2.0,34.1353,11111222 
TABS,ioos:station:wmo:42048:1,2012-11-09T21:00:00Z,27.9396,-96.8429,2.0,34.13,11111222 
TABS,ioos:station:wmo:42048:1,2012-11-09T21:30:00Z,27.9396,-96.8429,2.0,34.1223,11111222 
TABS,ioos:station:wmo:42048:1,2012-11-09T22:00:00Z,27.9396,-96.8429,2.0,34.1118,11111222 
TABS,ioos:station:wmo:42048:1,2012-11-09T22:30:00Z,27.9396,-96.8429,2.0,34.1125,11111222 
TABS,ioos:station:wmo:42048:1,2012-11-09T23:00:00Z,27.9396,-96.8429,2.0,34.1181,11111222 
TABS,ioos:station:wmo:42048:1,2012-11-09T23:30:00Z,27.9396,-96.8429,2.0,34.136,11111222 
TABS,ioos:station:wmo:42048:1,2012-11-10T00:00:00Z,27.9396,-96.8429,2.0,34.1371,11111222 
TABS,ioos:station:wmo:42048:1,2012-11-10T00:30:00Z,27.9396,-96.8429,2.0,34.1863,11111222 
TABS,ioos:station:wmo:42048:1,2012-11-10T01:00:00Z,27.9396,-96.8429,2.0,34.1748,11111222 
TABS,ioos:station:wmo:42048:1,2012-11-10T01:30:00Z,27.9396,-96.8429,2.0,34.1816,11111222 
TABS,ioos:station:wmo:42048:1,2012-11-10T02:00:00Z,27.9396,-96.8429,2.0,34.1956,11111222 
TABS,ioos:station:wmo:42048:1,2012-11-10T02:30:00Z,27.9396,-96.8429,2.0,34.2018,11111222 
TABS,ioos:station:wmo:42048:1,2012-11-10T03:00:00Z,27.9396,-96.8429,2.0,34.2155,11111222 
TABS,ioos:station:wmo:42048:1,2012-11-10T03:30:00Z,27.9396,-96.8429,2.0,34.2424,11111222 
TABS,ioos:station:wmo:42048:1,2012-11-10T04:00:00Z,27.9396,-96.8429,2.0,34.2544,11111222 
TABS,ioos:station:wmo:42048:1,2012-11-11T21:30:00Z,27.9396,-96.8429,2.0,34.4718,11111222 
TABS,ioos:station:wmo:42048:1,2012-11-11T22:00:00Z,27.9396,-96.8429,2.0,34.3878,11111222 
TABS,ioos:station:wmo:42048:1,2012-11-11T22:30:00Z,27.9396,-96.8429,2.0,34.3333,11111222 
TABS,ioos:station:wmo:42048:1,2012-11-11T23:00:00Z,27.9396,-96.8429,2.0,34.3228,11111222 
TABS,ioos:station:wmo:42048:1,2012-11-11T23:30:00Z,27.9396,-96.8429,2.0,34.3251,11111222 
TABS,ioos:station:wmo:42048:1,2012-11-12T00:00:00Z,27.9396,-96.8429,2.0,34.3255,11111222 
TABS,ioos:station:wmo:42048:1,2012-11-12T00:30:00Z,27.9396,-96.8429,2.0,34.3185,11111222 
TABS,ioos:station:wmo:42048:1,2012-11-12T01:00:00Z,27.9396,-96.8429,2.0,34.2982,11111222 
TABS,ioos:station:wmo:42048:1,2012-11-12T01:30:00Z,27.9396,-96.8429,2.0,34.2752,11111222 
TABS,ioos:station:wmo:42048:1,2012-11-12T02:00:00Z,27.9396,-96.8429,2.0,34.2134,11111222 
TABS,ioos:station:wmo:42048:1,2012-11-12T02:30:00Z,27.9396,-96.8429,2.0,34.2137,11111222 
TABS,ioos:station:wmo:42048:1,2012-11-12T03:00:00Z,27.9396,-96.8429,2.0,34.2274,11111222 
TABS,ioos:station:wmo:42048:1,2012-11-12T03:30:00Z,27.9396,-96.8429,2.0,34.2634,11111222 
TABS,ioos:station:wmo:42048:1,2012-11-12T04:00:00Z,27.9396,-96.8429,2.0,34.2756,11111222 
TABS,ioos:station:wmo:42048:1,2012-11-12T04:30:00Z,27.9396,-96.8429,2.0,34.1807,11111222 
TABS,ioos:station:wmo:42048:1,2012-11-12T05:00:00Z,27.9396,-96.8429,2.0,34.1088,11111222 
TABS,ioos:station:wmo:42048:1,2012-11-12T05:30:00Z,27.9396,-96.8429,2.0,34.0753,11111222 
TABS,ioos:station:wmo:42048:1,2012-11-12T06:00:00Z,27.9396,-96.8429,2.0,34.1029,11111222 
TABS,ioos:station:wmo:42048:1,2012-11-12T06:30:00Z,27.9396,-96.8429,2.0,34.1396,11111222 
TABS,ioos:station:wmo:42048:1,2012-11-12T07:00:00Z,27.9396,-96.8429,2.0,34.1666,11111222 
TABS,ioos:station:wmo:42048:1,2012-11-12T07:30:00Z,27.9396,-96.8429,2.0,34.1512,11111222 
TABS,ioos:station:wmo:42048:1,2012-11-12T08:00:00Z,27.9396,-96.8429,2.0,34.137,11111222 
TABS,ioos:station:wmo:42048:1,2012-11-12T08:30:00Z,27.9396,-96.8429,2.0,34.1278,11111222 
TABS,ioos:station:wmo:42048:1,2012-11-12T09:00:00Z,27.9396,-96.8429,2.0,34.1215,11111222 
TABS,ioos:station:wmo:42048:1,2012-11-12T09:30:00Z,27.9396,-96.8429,2.0,34.0945,11111222 
TABS,ioos:station:wmo:42048:1,2012-11-12T10:00:00Z,27.9396,-96.8429,2.0,34.054,11111222 
TABS,ioos:station:wmo:42048:1,2012-11-12T10:30:00Z,27.9396,-96.8429,2.0,34.0436,11111222 
TABS,ioos:station:wmo:42048:1,2012-11-12T11:00:00Z,27.9396,-96.8429,2.0,34.0615,11111222 
TABS,ioos:station:wmo:42048:1,2012-11-12T11:30:00Z,27.9396,-96.8429,2.0,34.0376,11111222 
TABS,ioos:station:wmo:42048:1,2012-11-12T12:00:00Z,27.9396,-96.8429,2.0,33.9705,11111222 
TABS,ioos:station:wmo:42048:1,2012-11-12T12:30:00Z,27.9396,-96.8429,2.0,33.9956,11111222 
TABS,ioos:station:wmo:42048:1,2012-11-12T13:00:00Z,27.9396,-96.8429,2.0,34.0712,11111222 
TABS,ioos:station:wmo:42048:1,2012-11-12T13:30:00Z,27.9396,-96.8429,2.0,34.1345,11111222 
TABS,ioos:station:wmo:42048:1,2012-11-12T14:00:00Z,27.9396,-96.8429,2.0,34.1942,11111222 
TABS,ioos:station:wmo:42048:1,2012-11-12T14:30:00Z,27.9396,-96.8429,2.0,34.069,11111222 
TABS,ioos:station:wmo:42048:1,2012-11-12T15:00:00Z,27.9396,-96.8429,2.0,34.0161,11111222 
TABS,ioos:station:wmo:42048:1,2012-11-12T16:00:00Z,27.9396,-96.8429,2.0,33.89,11111222 
TABS,ioos:station:wmo:42048:1,2012-11-12T16:30:00Z,27.9396,-96.8429,2.0,33.8245,11111222 
TABS,ioos:station:wmo:42048:1,2012-11-12T17:00:00Z,27.9396,-96.8429,2.0,33.8298,11111222 
TABS,ioos:station:wmo:42048:1,2012-11-12T17:30:00Z,27.9396,-96.8429,2.0,33.8807,11111222 
TABS,ioos:station:wmo:42048:1,2012-11-12T18:00:00Z,27.9396,-96.8429,2.0,33.9068,11111222 
TABS,ioos:station:wmo:42048:1,2012-11-12T18:30:00Z,27.9396,-96.8429,2.0,33.9705,11111222 
TABS,ioos:station:wmo:42048:1,2012-11-12T19:00:00Z,27.9396,-96.8429,2.0,34.0368,11111222 
TABS,ioos:station:wmo:42048:1,2012-11-12T19:30:00Z,27.9396,-96.8429,2.0,34.0374,11111222 
TABS,ioos:station:wmo:42048:1,2012-11-12T20:00:00Z,27.9396,-96.8429,2.0,34.0139,11111222 
TABS,ioos:station:wmo:42048:1,2012-11-12T20:30:00Z,27.9396,-96.8429,2.0,33.984,11111222 
TABS,ioos:station:wmo:42048:1,2012-11-12T21:00:00Z,27.9396,-96.8429,2.0,33.963,11111222 
TABS,ioos:station:wmo:42048:1,2012-11-12T21:30:00Z,27.9396,-96.8429,2.0,33.9588,11111222 
TABS,ioos:station:wmo:42048:1,2012-11-12T22:00:00Z,27.9396,-96.8429,2.0,33.9343,11111222 
TABS,ioos:station:wmo:42048:1,2012-11-12T22:30:00Z,27.9396,-96.8429,2.0,33.9178,11111222 
TABS,ioos:station:wmo:42048:1,2012-11-12T23:00:00Z,27.9396,-96.8429,2.0,33.8687,11111222 
TABS,ioos:station:wmo:42048:1,2012-11-12T23:30:00Z,27.9396,-96.8429,2.0,33.8365,11111222 
TABS,ioos:station:wmo:42048:1,2012-11-13T00:00:00Z,27.9396,-96.8429,2.0,33.8167,11111222 
TABS,ioos:station:wmo:42048:1,2012-11-13T00:30:00Z,27.9396,-96.8429,2.0,33.7806,11111222 
TABS,ioos:station:wmo:42048:1,2012-11-13T01:00:00Z,27.9396,-96.8429,2.0,33.7511,11111222 
TABS,ioos:station:wmo:42048:1,2012-11-13T01:30:00Z,27.9396,-96.8429,2.0,33.695,11111222 
TABS,ioos:station:wmo:42048:1,2012-11-13T02:00:00Z,27.9396,-96.8429,2.0,33.7284,11111222 
TABS,ioos:station:wmo:42048:1,2012-11-13T02:30:00Z,27.9396,-96.8429,2.0,33.6267,11111222 
TABS,ioos:station:wmo:42048:1,2012-11-13T03:00:00Z,27.9396,-96.8429,2.0,33.5864,11111222 
TABS,ioos:station:wmo:42048:1,2012-11-13T03:30:00Z,27.9396,-96.8429,2.0,33.5329,11111222 
TABS,ioos:station:wmo:42048:1,2012-11-13T04:00:00Z,27.9396,-96.8429,2.0,33.4883,11111222 
TABS,ioos:station:wmo:42048:1,2012-11-13T04:30:00Z,27.9396,-96.8429,2.0,33.4193,11111222 
TABS,ioos:station:wmo:42048:1,2012-11-13T05:00:00Z,27.9396,-96.8429,2.0,33.4173,11111222 
TABS,ioos:station:wmo:42048:1,2012-11-13T05:30:00Z,27.9396,-96.8429,2.0,33.4399,11111222 
TABS,ioos:station:wmo:42048:1,2012-11-13T06:00:00Z,27.9396,-96.8429,2.0,33.4885,11111222 
TABS,ioos:station:wmo:42048:1,2012-11-13T06:30:00Z,27.9396,-96.8429,2.0,33.4737,11111222 
TABS,ioos:station:wmo:42048:1,2012-11-13T07:00:00Z,27.9396,-96.8429,2.0,33.4394,11111222 
TABS,ioos:station:wmo:42048:1,2012-11-13T07:30:00Z,27.9396,-96.8429,2.0,33.3725,11111222 
TABS,ioos:station:wmo:42048:1,2012-11-13T08:00:00Z,27.9396,-96.8429,2.0,33.3254,11111222 
TABS,ioos:station:wmo:42048:1,2012-11-13T08:30:00Z,27.9396,-96.8429,2.0,33.2687,11111222 
TABS,ioos:station:wmo:42048:1,2012-11-13T09:00:00Z,27.9396,-96.8429,2.0,33.2679,11111222 
TABS,ioos:station:wmo:42048:1,2012-11-13T09:30:00Z,27.9396,-96.8429,2.0,33.2445,11111222 
TABS,ioos:station:wmo:42048:1,2012-11-13T10:00:00Z,27.9396,-96.8429,2.0,33.2521,11111222 
TABS,ioos:station:wmo:42048:1,2012-11-13T10:30:00Z,27.9396,-96.8429,2.0,33.256,11111222 
TABS,ioos:station:wmo:42048:1,2012-11-13T11:00:00Z,27.9396,-96.8429,2.0,33.3026,11111222 
TABS,ioos:station:wmo:42048:1,2012-11-13T11:30:00Z,27.9396,-96.8429,2.0,33.3384,11111222 
TABS,ioos:station:wmo:42048:1,2012-11-13T12:00:00Z,27.9396,-96.8429,2.0,33.2779,11111222 
TABS,ioos:station:wmo:42048:1,2012-11-13T12:30:00Z,27.9396,-96.8429,2.0,33.2811,11111222 
TABS,ioos:station:wmo:42048:1,2012-11-13T13:00:00Z,27.9396,-96.8429,2.0,33.333,11111222 
TABS,ioos:station:wmo:42048:1,2012-11-13T13:30:00Z,27.9396,-96.8429,2.0,33.3653,11111222 
TABS,ioos:station:wmo:42048:1,2012-11-13T14:00:00Z,27.9396,-96.8429,2.0,33.4296,11111222 
TABS,ioos:station:wmo:42048:1,2012-11-13T14:30:00Z,27.9396,-96.8429,2.0,33.4758,11111222 
TABS,ioos:station:wmo:42048:1,2012-11-13T15:00:00Z,27.9396,-96.8429,2.0,33.3734,11111222 
TABS,ioos:station:wmo:42048:1,2012-11-13T15:30:00Z,27.9396,-96.8429,2.0,33.3868,11111222 
TABS,ioos:station:wmo:42048:1,2012-11-13T16:00:00Z,27.9396,-96.8429,2.0,33.3726,11111222 
TABS,ioos:station:wmo:42048:1,2012-11-13T16:30:00Z,27.9396,-96.8429,2.0,33.3423,11111222 
TABS,ioos:station:wmo:42048:1,2012-11-13T17:00:00Z,27.9396,-96.8429,2.0,33.3349,11111222 
TABS,ioos:station:wmo:42048:1,2012-11-13T17:30:00Z,27.9396,-96.8429,2.0,33.3423,11111222 
TABS,ioos:station:wmo:42048:1,2012-11-13T18:00:00Z,27.9396,-96.8429,2.0,33.3311,11111222 
TABS,ioos:station:wmo:42048:1,2012-11-13T18:30:00Z,27.9396,-96.8429,2.0,33.3076,11111222 
TABS,ioos:station:wmo:42048:1,2012-11-13T19:00:00Z,27.9396,-96.8429,2.0,33.2522,11111222 
TABS,ioos:station:wmo:42048:1,2012-11-13T19:30:00Z,27.9396,-96.8429,2.0,33.0904,11111222 
TABS,ioos:station:wmo:42048:1,2012-11-13T20:00:00Z,27.9396,-96.8429,2.0,33.0351,11111222 
TABS,ioos:station:wmo:42048:1,2012-11-13T20:30:00Z,27.9396,-96.8429,2.0,33.0172,11111222 
TABS,ioos:station:wmo:42048:1,2012-11-13T21:00:00Z,27.9396,-96.8429,2.0,33.0149,11111222 
TABS,ioos:station:wmo:42048:1,2012-11-13T21:30:00Z,27.9396,-96.8429,2.0,33.0399,11111222 
TABS,ioos:station:wmo:42048:1,2012-11-13T22:00:00Z,27.9396,-96.8429,2.0,33.0561,11111222 
TABS,ioos:station:wmo:42048:1,2012-11-14T06:00:00Z,27.9396,-96.8429,2.0,32.9469,11111222 